This is the latest recevied weather packets stored in our database for station/object SP1BMW-13. If no packets are shown the sender has not sent any weather packets the latest 10 day(s).
| Time | Temp. | Humidity | Pressure | Rain* | Wind** | Luminosity | Snow |
|---|---|---|---|---|---|---|---|
| 1787656537 | 22.22° C | 52% | 1018.8 hPa | 0 mm | 1.34 m/s, 43° | 693 W/m² | - |
| 1787656477 | 22.22° C | 52% | 1019 hPa | 0 mm | 2.24 m/s, 38° | 688 W/m² | - |
| 1787656417 | 22.22° C | 51% | 1019 hPa | 0 mm | 1.34 m/s, 41° | 690 W/m² | - |
| 1787656357 | 22.22° C | 54% | 1019 hPa | 0 mm | 0.89 m/s, 50° | 688 W/m² | - |
| 1787656298 | 22.22° C | 52% | 1018.8 hPa | 0 mm | 2.24 m/s, 89° | 714 W/m² | - |
| 1787656237 | 22.22° C | 52% | 1018.8 hPa | 0 mm | 1.34 m/s, 28° | 722 W/m² | - |
| 1787656177 | 22.78° C | 54% | 1018.7 hPa | 0 mm | 0.45 m/s, 22° | 735 W/m² | - |
| 1787656117 | 22.78° C | 51% | 1018.9 hPa | 0 mm | 0.89 m/s, 99° | 301 W/m² | - |
| 1787656058 | 22.78° C | 50% | 1018.7 hPa | 0 mm | 1.34 m/s, 59° | 129 W/m² | - |
| 1787655998 | 23.33° C | 50% | 1019.1 hPa | 0 mm | 2.24 m/s, 37° | 126 W/m² | - |
| 1787655938 | 23.33° C | 51% | 1018.8 hPa | 0 mm | 1.79 m/s, 72° | 283 W/m² | - |
| 1787655877 | 23.33° C | 50% | 1018.9 hPa | 0 mm | 1.34 m/s, 155° | 712 W/m² | - |
| 1787655817 | 23.33° C | 51% | 1018.5 hPa | 0 mm | 0.45 m/s, 97° | 571 W/m² | - |
| 1787655757 | 23.33° C | 48% | 1018.9 hPa | 0 mm | 0.89 m/s, 142° | 220 W/m² | - |
| 1787655697 | 23.33° C | 49% | 1018.8 hPa | 0 mm | 1.79 m/s, 48° | 712 W/m² | - |
| 1787655639 | 23.33° C | 49% | 1018.7 hPa | 0 mm | 1.34 m/s, 49° | 699 W/m² | - |
| 1787655577 | 23.33° C | 50% | 1018.9 hPa | 0 mm | 1.34 m/s, 67° | 691 W/m² | - |
| 1787655517 | 23.33° C | 51% | 1018.8 hPa | 0 mm | 1.34 m/s, 76° | 699 W/m² | - |
| 1787655457 | 23.33° C | 49% | 1018.7 hPa | 0 mm | 0.89 m/s, 134° | 702 W/m² | - |
| 1787655397 | 23.33° C | 49% | 1018.9 hPa | 0 mm | 0.89 m/s, 285° | 703 W/m² | - |
| 1787655337 | 23.33° C | 50% | 1018.9 hPa | 0 mm | 0.89 m/s, 52° | 697 W/m² | - |
| 1787655281 | 23.33° C | 50% | 1018.9 hPa | 0 mm | 0.89 m/s, 45° | 699 W/m² | - |
| 1787655217 | 23.33° C | 51% | 1018.9 hPa | 0 mm | 0.89 m/s, 38° | 694 W/m² | - |
| 1787655157 | 23.33° C | 51% | 1018.9 hPa | 0 mm | 0.45 m/s, 158° | 692 W/m² | - |
| 1787655096 | 22.78° C | 49% | 1018.9 hPa | 0 mm | 0.89 m/s, 194° | 690 W/m² | - |
* Rain latest hour (hover to see other rain measurements)
** Current wind speed in m/s (hover to see current wind gust speed)